TimeMDT,TemperatureF,Dew PointF,Humidity,Sea Level PressureIn,VisibilityMPH,Wind Direction,Wind SpeedMPH,Gust SpeedMPH,PrecipitationIn,Events,Conditions,WindDirDegrees,DateUTC
12:05 AM,57.2,51.8,82,29.95,10.0,North,13.8,23.0,N/A,Thunderstorm,Overcast,10,2013-05-26 06:05:00
12:22 AM,59.0,51.8,77,29.95,10.0,NE,9.2,34.5,N/A,Thunderstorm,Thunderstorm,40,2013-05-26 06:22:00
12:38 AM,55.4,51.8,88,29.96,2.0,NNE,17.3,27.6,0.28,Rain-Thunderstorm,Heavy Thunderstorms and Rain,30,2013-05-26 06:38:00
12:46 AM,55.4,50.0,82,29.95,3.0,ENE,20.7,-,0.33,Rain-Thunderstorm,Heavy Thunderstorms and Rain,60,2013-05-26 06:46:00
12:51 AM,55.0,48.9,80,29.92,5.0,NE,19.6,-,0.38,Rain-Thunderstorm,Thunderstorms and Rain,50,2013-05-26 06:51:00
1:51 AM,55.0,50.0,83,29.89,6.0,ESE,18.4,-,0.32,Rain-Thunderstorm,Rain,120,2013-05-26 07:51:00
2:05 AM,55.4,50.0,82,29.90,10.0,ESE,19.6,-,0.01,Rain,Light Rain,110,2013-05-26 08:05:00
2:51 AM,54.0,50.0,86,29.92,10.0,SE,6.9,-,0.02,,Overcast,130,2013-05-26 08:51:00
3:51 AM,52.0,48.0,86,29.94,10.0,Calm,Calm,-,0.09,,Mostly Cloudy,0,2013-05-26 09:51:00
4:51 AM,52.0,46.9,83,29.92,10.0,SE,12.7,-,N/A,,Overcast,140,2013-05-26 10:51:00
5:51 AM,52.0,46.9,83,29.91,10.0,SSE,16.1,-,N/A,,Scattered Clouds,150,2013-05-26 11:51:00
6:51 AM,55.9,48.9,77,29.91,10.0,SSE,18.4,-,N/A,,Partly Cloudy,160,2013-05-26 12:51:00
7:51 AM,60.1,50.0,69,29.91,10.0,SSE,19.6,26.5,N/A,,Clear,160,2013-05-26 13:51:00
8:51 AM,64.0,50.0,60,29.91,10.0,SSE,17.3,-,N/A,,Clear,160,2013-05-26 14:51:00
9:51 AM,66.9,50.0,54,29.92,10.0,SSE,16.1,-,N/A,,Clear,160,2013-05-26 15:51:00
10:51 AM,68.0,50.0,52,29.93,10.0,East,4.6,-,N/A,,Clear,80,2013-05-26 16:51:00
11:51 AM,70.0,50.0,49,29.91,10.0,Variable,3.5,-,N/A,,Mostly Cloudy,0,2013-05-26 17:51:00
12:51 PM,72.0,52.0,49,29.90,10.0,SE,9.2,-,N/A,,Mostly Cloudy,140,2013-05-26 18:51:00
1:51 PM,73.0,52.0,48,29.89,10.0,SE,11.5,-,N/A,,Partly Cloudy,130,2013-05-26 19:51:00
2:51 PM,73.0,53.1,49,29.88,10.0,East,11.5,-,N/A,,Scattered Clouds,90,2013-05-26 20:51:00
3:51 PM,73.9,52.0,46,29.87,10.0,East,12.7,-,N/A,,Scattered Clouds,90,2013-05-26 21:51:00
4:51 PM,72.0,54.0,53,29.86,10.0,East,15.0,-,N/A,,Scattered Clouds,100,2013-05-26 22:51:00
5:51 PM,71.1,55.0,57,29.85,10.0,SE,23.0,26.5,N/A,,Scattered Clouds,130,2013-05-26 23:51:00
6:51 PM,69.1,54.0,58,29.82,10.0,ESE,19.6,25.3,N/A,,Clear,110,2013-05-27 00:51:00
7:51 PM,66.9,54.0,63,29.83,10.0,ESE,10.4,-,N/A,,Clear,110,2013-05-27 01:51:00
8:51 PM,64.0,55.9,75,29.81,10.0,ESE,11.5,-,N/A,,Partly Cloudy,110,2013-05-27 02:51:00
9:51 PM,64.0,57.0,78,29.81,10.0,SE,19.6,-,N/A,,Clear,130,2013-05-27 03:51:00
10:24 PM,64.4,57.2,77,29.85,10.0,SE,26.5,33.4,N/A,,Mostly Cloudy,130,2013-05-27 04:24:00
10:51 PM,64.0,57.0,78,29.81,10.0,SE,21.9,27.6,N/A,,Overcast,130,2013-05-27 04:51:00
11:23 PM,62.6,57.2,82,29.87,10.0,SSE,27.6,34.5,N/A,,Overcast,150,2013-05-27 05:23:00
11:51 PM,63.0,57.9,84,29.82,10.0,SSE,19.6,25.3,N/A,,Overcast,150,2013-05-27 05:51:00